GW0312 Weather Reports


time (UTC)temp
F
wind
direction
speed
knots
gust
knots
rain 1hr
in
rain 24hr
in
rain mn
in
humidity
%
barometer
mb
20260906163104 97 66 2.6 8.7 0.00 0.00 0.00 46 1017.2
20260906161604 98 108 0.0 4.3 0.00 0.00 0.00 47 1017.3
20260906160104 96 133 1.7 7.0 0.00 0.00 0.00 49 1017.2
20260906154606 95 116 1.7 6.1 0.00 0.00 0.00 51 1017.1
20260906153106 94 121 0.9 4.3 0.00 0.00 0.00 52 1017.0
20260906151606 93 54 0.9 6.1 0.00 0.00 0.00 53 1016.8
20260906150107 92 100 2.6 7.8 0.00 0.00 0.00 55 1016.9
20260906144605 90 106 2.6 6.1 0.00 0.00 0.00 58 1016.8
20260906143112 89 122 1.7 4.3 0.00 0.00 0.00 61 1016.8
20260906141603 88 0 0.9 3.5 0.00 0.00 0.00 63 1016.9
20260906140101 86 10 0.9 3.5 0.00 0.00 0.00 63 1016.7
20260906134605 84 101 0.0 2.6 0.00 0.00 0.00 67 1016.7
20260906133112 82 111 0.0 0.9 0.00 0.00 0.00 70 1016.6
20260906131605 79 118 0.0 1.7 0.00 0.00 0.00 74 1016.6
20260906130104 77 0 0.0 0.0 0.00 0.00 0.00 77 1016.6
20260906124601 75 0 0.0 0.0 0.00 0.00 0.00 78 1016.4
20260906123114 74 0 0.0 0.9 0.00 0.00 0.00 79 1016.5
20260906121607 73 22 0.9 2.6 0.00 0.00 0.00 80 1016.2
20260906120140 71 0 0.0 0.0 0.00 0.00 0.00 82 1016.1
20260906114627 71 0 0.0 0.0 0.00 0.00 0.00 82 1015.7
20260906113103 71 0 0.0 1.7 0.00 0.00 0.00 81 1015.7
20260906111616 71 0 0.0 0.0 0.00 0.00 0.00 82 1015.6
20260906110100 71 0 0.0 0.0 0.00 0.00 0.00 81 1015.5
20260906104603 72 0 0.0 0.0 0.00 0.00 0.00 80 1015.5
20260906103104 72 0 0.0 0.0 0.00 0.00 0.00 80 1015.4
20260906101606 72 0 0.0 0.0 0.00 0.00 0.00 79 1015.4
20260906100104 72 0 0.0 0.0 0.00 0.00 0.00 79 1015.3
20260906094604 72 0 0.0 0.0 0.00 0.00 0.00 79 1015.2
20260906093100 72 0 0.0 0.0 0.00 0.00 0.00 79 1015.0
20260906091601 73 0 0.0 0.0 0.00 0.00 0.00 78 1014.9
20260906090105 73 0 0.0 0.0 0.00 0.00 0.00 78 1014.7
20260906084603 73 0 0.0 0.9 0.00 0.00 0.00 76 1014.8
20260906083103 76 0 0.0 0.0 0.00 0.00 0.00 72 1014.7
20260906081601 76 0 0.0 0.0 0.00 0.00 0.00 72 1014.7
20260906074605 77 0 0.0 0.0 0.00 0.00 0.00 70 1014.9
20260906073101 78 0 0.0 0.0 0.00 0.00 0.00 70 1015.1
20260906071602 77 0 0.0 0.9 0.00 0.00 0.00 71 1015.2
20260906070106 77 0 0.0 0.9 0.00 0.00 0.00 70 1015.3
20260906064600 79 0 0.0 1.7 0.00 0.00 0.00 68 1015.4
20260906063101 79 0 0.0 0.0 0.00 0.00 0.00 68 1015.5
20260906061601 79 0 0.0 0.0 0.00 0.00 0.00 68 1015.4
20260906060109 79 0 0.0 0.0 0.00 0.00 0.00 67 1015.5
20260906054641 80 0 0.0 0.0 0.00 0.00 0.00 66 1015.5
20260906053101 81 0 0.0 0.0 0.00 0.00 0.00 66 1015.4
20260906051602 81 11 0.9 2.6 0.00 0.00 0.00 65 1015.5
20260906050108 81 3 1.7 2.6 0.00 0.00 0.00 65 1015.3
20260906044603 82 0 0.0 0.0 0.00 0.00 0.00 64 1015.4
20260906043101 82 23 0.0 1.7 0.00 0.00 0.00 64 1015.5
20260906041604 81 0 0.0 0.0 0.00 0.00 0.00 65 1015.5
20260906040109 81 0 0.0 0.0 0.00 0.00 0.00 66 1015.5
20260906034601 79 0 0.0 0.0 0.00 0.00 0.00 67 1015.5
20260906033124 78 0 0.0 0.0 0.00 0.00 0.00 68 1015.4
20260906031615 79 0 0.0 0.0 0.00 0.00 0.00 67 1015.3
20260906030059 81 0 0.0 0.0 0.00 0.00 0.00 64 1015.2
20260906024606 81 0 0.0 0.0 0.00 0.00 0.00 64 1015.2
20260906023104 81 0 0.0 0.0 0.00 0.00 0.00 65 1015.0
20260906021615 82 0 0.0 0.0 0.00 0.00 0.00 64 1014.7
20260906014603 83 0 0.0 0.0 0.00 0.00 0.00 64 1014.4
20260906013107 84 0 0.0 0.0 0.00 0.00 0.00 63 1014.3
20260906011607 85 0 0.0 0.0 0.00 0.00 0.00 61 1014.3
20260906010104 86 0 0.0 1.7 0.00 0.00 0.00 58 1014.1
20260906004614 88 0 0.0 0.0 0.00 0.00 0.00 55 1014.1
20260906003102 91 0 0.0 0.0 0.00 0.00 0.00 50 1014.3
20260906001605 93 0 0.0 0.9 0.00 0.00 0.00 47 1014.2
20260906000108 93 29 1.7 6.1 0.00 0.00 0.00 46 1014.3
20260905234607 95 18 0.9 3.5 0.00 0.00 0.00 45 1014.2
20260905233059 94 106 4.3 7.0 0.00 0.00 0.00 45 1013.8
20260905231607 96 51 0.0 1.7 0.00 0.00 0.00 42 1013.6
20260905230103 99 0 0.0 5.2 0.00 0.00 0.00 38 1013.5
20260905224603 100 0 0.0 2.6 0.00 0.00 0.00 36 1013.5
20260905223104 100 0 0.9 2.6 0.00 0.00 0.00 37 1013.4
20260905221603 101 0 0.0 1.7 0.00 0.00 0.00 36 1013.5
20260905220105 100 173 0.0 4.3 0.00 0.00 0.00 38 1013.5
20260905214601 100 0 0.9 5.2 0.00 0.00 0.00 37 1013.7
20260905213108 99 18 0.9 3.5 0.00 0.00 0.00 39 1013.7
20260905211612 102 113 0.0 4.3 0.00 0.00 0.00 35 1014.1
20260905210107 102 122 1.7 5.2 0.00 0.00 0.00 36 1014.1
20260905204614 100 110 2.6 5.2 0.00 0.00 0.00 38 1014.4
20260905203122 99 161 1.7 5.2 0.00 0.00 0.00 40 1014.5
20260905201606 98 130 1.7 4.3 0.00 0.00 0.00 41 1014.6
20260905200119 99 13 0.0 5.2 0.00 0.00 0.00 40 1014.9
20260905194605 102 44 0.9 3.5 0.00 0.00 0.00 39 1015.0
20260905193105 101 220 2.6 5.2 0.00 0.00 0.00 37 1015.1
20260905191605 100 321 1.7 5.2 0.00 0.00 0.00 38 1015.4
20260905190108 97 288 0.0 0.9 0.00 0.00 0.00 44 1015.7
20260905184611 98 29 0.0 6.1 0.00 0.00 0.00 41 1016.0
20260905183106 101 50 0.9 4.3 0.00 0.00 0.00 40 1016.1
20260905181605 99 111 1.7 10.4 0.00 0.00 0.00 42 1016.3
20260905180107 98 0 0.0 7.0 0.00 0.00 0.00 43 1016.5
20260905174607 98 3 3.5 7.8 0.00 0.00 0.00 42 1016.8
20260905173106 97 53 0.9 7.0 0.00 0.00 0.00 44 1017.0
20260905171601 96 90 2.6 9.6 0.00 0.00 0.00 45 1017.1
20260905170126 97 38 1.7 7.0 0.00 0.00 0.00 48 1017.3
20260905164603 96 0 0.0 10.4 0.00 0.00 0.00 48 1017.4